Location: Bli��� Lhota
(48.7570°N, 14.0120°E)
Time: 06:09:53
(UTC+00:00)

Terra - Pass Details

Date: 18 September 2020
Orbit: 701 x 703 km, 98.2° (Epoch: 22 October)

Event Time Altitude Azimuth Distance (km) Brightness Sun altitude
Exits shadow 20:19:12 29° 21° (NNE) 1,280 3.3 -29.2°
Drops below altitude 10° 20:21:53 10° 359° (N) 2,183 4.9 -29.6°
Sets 20:24:15 0° 352° (N) 3,106 5.9 -29.8°
